Year,Month,Day,Hour,Minute,Value (Times are PST for temperature in C)
2018,04,23,00,00,5.30
2018,04,23,00,01,5.30
2018,04,23,00,02,5.20
2018,04,23,00,03,5.20
2018,04,23,00,04,5.20
2018,04,23,00,05,5.20
2018,04,23,00,06,5.20
2018,04,23,00,07,5.20
2018,04,23,00,08,5.20
2018,04,23,00,09,5.10
2018,04,23,00,10,5.10
2018,04,23,00,11,5.10
2018,04,23,00,12,5.10
2018,04,23,00,13,5.10
2018,04,23,00,14,5.10
2018,04,23,00,15,5.00
2018,04,23,00,16,5.00
2018,04,23,00,17,5.00
2018,04,23,00,18,4.90
2018,04,23,00,19,4.90
2018,04,23,00,20,4.90
2018,04,23,00,21,4.90
2018,04,23,00,22,4.90
2018,04,23,00,23,4.80
2018,04,23,00,24,4.80
2018,04,23,00,25,4.80
2018,04,23,00,26,4.80
2018,04,23,00,27,4.70
2018,04,23,00,28,4.70
2018,04,23,00,29,4.70
2018,04,23,00,30,4.60
2018,04,23,00,31,4.60
2018,04,23,00,32,4.60
2018,04,23,00,33,4.60
2018,04,23,00,34,4.60
2018,04,23,00,35,4.60
2018,04,23,00,36,4.60
2018,04,23,00,37,4.60
2018,04,23,00,38,4.60
2018,04,23,00,39,4.60
2018,04,23,00,40,4.60
2018,04,23,00,41,4.50
2018,04,23,00,42,4.50
2018,04,23,00,43,4.50
2018,04,23,00,44,4.50
2018,04,23,00,45,4.40
2018,04,23,00,46,4.40
2018,04,23,00,47,4.40
2018,04,23,00,48,4.40
2018,04,23,00,49,4.40
2018,04,23,00,50,4.40
2018,04,23,00,51,4.40
2018,04,23,00,52,4.40
2018,04,23,00,53,4.40
2018,04,23,00,54,4.40
2018,04,23,00,55,4.40
2018,04,23,00,56,4.40
2018,04,23,00,57,4.40
2018,04,23,00,58,4.40
2018,04,23,00,59,4.40
2018,04,23,01,00,4.50
2018,04,23,01,01,4.50
2018,04,23,01,02,4.50
2018,04,23,01,03,4.50
2018,04,23,01,04,4.50
2018,04,23,01,05,4.50
2018,04,23,01,06,4.50
2018,04,23,01,07,4.50
2018,04,23,01,08,4.50
2018,04,23,01,09,4.50
2018,04,23,01,10,4.50
2018,04,23,01,11,4.50
2018,04,23,01,12,4.50
2018,04,23,01,13,4.50
2018,04,23,01,14,4.50
2018,04,23,01,15,4.50
2018,04,23,01,16,4.50
2018,04,23,01,17,4.50
2018,04,23,01,18,4.50
2018,04,23,01,19,4.50
2018,04,23,01,20,4.50
2018,04,23,01,21,4.40
2018,04,23,01,22,4.50
2018,04,23,01,23,4.40
2018,04,23,01,24,4.40
2018,04,23,01,25,4.40
2018,04,23,01,26,4.40
2018,04,23,01,27,4.40
2018,04,23,01,28,4.40
2018,04,23,01,29,4.40
2018,04,23,01,30,4.40
2018,04,23,01,31,4.40
2018,04,23,01,32,4.40
2018,04,23,01,33,4.40
2018,04,23,01,34,4.40
2018,04,23,01,35,4.40
2018,04,23,01,36,4.40
2018,04,23,01,37,4.40
2018,04,23,01,38,4.40
2018,04,23,01,39,4.30
2018,04,23,01,40,4.30
2018,04,23,01,41,4.30
2018,04,23,01,42,4.30
2018,04,23,01,43,4.30
2018,04,23,01,44,4.30
2018,04,23,01,45,4.30
2018,04,23,01,46,4.30
2018,04,23,01,47,4.30
2018,04,23,01,48,4.30
2018,04,23,01,49,4.30
2018,04,23,01,50,4.20
2018,04,23,01,51,4.20
2018,04,23,01,52,4.20
2018,04,23,01,53,4.20
2018,04,23,01,54,4.20
2018,04,23,01,55,4.20
2018,04,23,01,56,4.20
2018,04,23,01,57,4.20
2018,04,23,01,58,4.20
2018,04,23,01,59,4.20
2018,04,23,02,00,4.20
2018,04,23,02,01,4.20
2018,04,23,02,02,4.20
2018,04,23,02,03,4.20
2018,04,23,02,04,4.20
2018,04,23,02,05,4.20
2018,04,23,02,06,4.20
2018,04,23,02,07,4.20
2018,04,23,02,08,4.20
2018,04,23,02,09,4.20
2018,04,23,02,10,4.20
2018,04,23,02,11,4.10
2018,04,23,02,12,4.10
2018,04,23,02,13,4.10
2018,04,23,02,14,4.10
2018,04,23,02,15,4.10
2018,04,23,02,16,4.10
2018,04,23,02,17,4.10
2018,04,23,02,18,4.10
2018,04,23,02,19,4.00
2018,04,23,02,20,4.00
2018,04,23,02,21,4.00
2018,04,23,02,22,4.00
2018,04,23,02,23,4.00
2018,04,23,02,24,4.00
2018,04,23,02,25,4.00
2018,04,23,02,26,4.00
2018,04,23,02,27,4.00
2018,04,23,02,28,4.00
2018,04,23,02,29,4.00
2018,04,23,02,30,4.00
2018,04,23,02,31,4.00
2018,04,23,02,32,4.00
2018,04,23,02,33,4.00
2018,04,23,02,34,4.00
2018,04,23,02,35,4.10
2018,04,23,02,36,4.10
2018,04,23,02,37,4.10
2018,04,23,02,38,4.10
2018,04,23,02,39,4.10
2018,04,23,02,40,4.10
2018,04,23,02,41,4.10
2018,04,23,02,42,4.10
2018,04,23,02,43,4.10
2018,04,23,02,44,4.10
2018,04,23,02,45,4.00
2018,04,23,02,46,4.00
2018,04,23,02,47,4.00
2018,04,23,02,48,4.00
2018,04,23,02,49,4.00
2018,04,23,02,50,4.00
2018,04,23,02,51,4.00
2018,04,23,02,52,3.90
2018,04,23,02,53,3.90
2018,04,23,02,54,3.90
2018,04,23,02,55,3.90
2018,04,23,02,56,3.90
2018,04,23,02,57,3.90
2018,04,23,02,58,3.90
2018,04,23,02,59,3.90
2018,04,23,03,00,3.90
2018,04,23,03,01,3.90
2018,04,23,03,02,3.90
2018,04,23,03,03,3.90
2018,04,23,03,04,3.90
2018,04,23,03,05,3.80
2018,04,23,03,06,3.80
2018,04,23,03,07,3.80
2018,04,23,03,08,3.80
2018,04,23,03,09,3.80
2018,04,23,03,10,3.80
2018,04,23,03,11,3.80
2018,04,23,03,12,3.70
2018,04,23,03,13,3.70
2018,04,23,03,14,3.70
2018,04,23,03,15,3.70
2018,04,23,03,16,3.70
2018,04,23,03,17,3.70
2018,04,23,03,18,3.70
2018,04,23,03,19,3.70
2018,04,23,03,20,3.70
2018,04,23,03,21,3.70
2018,04,23,03,22,3.70
2018,04,23,03,23,3.70
2018,04,23,03,24,3.70
2018,04,23,03,25,3.70
2018,04,23,03,26,3.80
2018,04,23,03,27,3.80
2018,04,23,03,28,3.80
2018,04,23,03,29,3.90
2018,04,23,03,30,3.90
2018,04,23,03,31,3.90
2018,04,23,03,32,3.90
2018,04,23,03,33,3.90
2018,04,23,03,34,3.90
2018,04,23,03,35,3.90
2018,04,23,03,36,3.80
2018,04,23,03,37,3.80
2018,04,23,03,38,3.80
2018,04,23,03,39,3.70
2018,04,23,03,40,3.70
2018,04,23,03,41,3.70
2018,04,23,03,42,3.70
2018,04,23,03,43,3.70
2018,04,23,03,44,3.70
2018,04,23,03,45,3.70
2018,04,23,03,46,3.70
2018,04,23,03,47,3.60
2018,04,23,03,48,3.60
2018,04,23,03,49,3.60
2018,04,23,03,50,3.60
2018,04,23,03,51,3.60
2018,04,23,03,52,3.60
2018,04,23,03,53,3.60
2018,04,23,03,54,3.60
2018,04,23,03,55,3.60
2018,04,23,03,56,3.60
2018,04,23,03,57,3.60
2018,04,23,03,58,3.60
2018,04,23,03,59,3.50
2018,04,23,04,00,3.50
2018,04,23,04,01,3.50
2018,04,23,04,02,3.50
2018,04,23,04,03,3.60
2018,04,23,04,04,3.60
2018,04,23,04,05,3.60
2018,04,23,04,06,3.60
2018,04,23,04,07,3.60
2018,04,23,04,08,3.60
2018,04,23,04,09,3.60
2018,04,23,04,10,3.60
2018,04,23,04,11,3.60
2018,04,23,04,12,3.60
2018,04,23,04,13,3.60
2018,04,23,04,14,3.70
2018,04,23,04,15,3.70
2018,04,23,04,16,3.60
2018,04,23,04,17,3.70
2018,04,23,04,18,3.60
2018,04,23,04,19,3.60
2018,04,23,04,20,3.60
2018,04,23,04,21,3.60
2018,04,23,04,22,3.60
2018,04,23,04,23,3.60
2018,04,23,04,24,3.60
2018,04,23,04,25,3.60
2018,04,23,04,26,3.60
2018,04,23,04,27,3.50
2018,04,23,04,28,3.50
2018,04,23,04,29,3.50
2018,04,23,04,30,3.50
2018,04,23,04,31,3.50
2018,04,23,04,32,3.50
2018,04,23,04,33,3.50
2018,04,23,04,34,3.50
2018,04,23,04,35,3.50
2018,04,23,04,36,3.60
2018,04,23,04,37,3.60
2018,04,23,04,38,3.70
2018,04,23,04,39,3.70
2018,04,23,04,40,3.70
2018,04,23,04,41,3.70
2018,04,23,04,42,3.70
2018,04,23,04,43,3.70
2018,04,23,04,44,3.70
2018,04,23,04,45,3.70
2018,04,23,04,46,3.80
2018,04,23,04,47,3.80
2018,04,23,04,48,3.80
2018,04,23,04,49,3.80
2018,04,23,04,50,3.80
2018,04,23,04,51,3.80
2018,04,23,04,52,3.80
2018,04,23,04,53,3.80
2018,04,23,04,54,3.80
2018,04,23,04,55,3.80
2018,04,23,04,56,3.80
2018,04,23,04,57,3.80
2018,04,23,04,58,3.80
2018,04,23,04,59,3.80
2018,04,23,05,00,3.80
2018,04,23,05,01,3.80
2018,04,23,05,02,3.80
2018,04,23,05,03,3.80
2018,04,23,05,04,3.80
2018,04,23,05,05,3.80
2018,04,23,05,06,3.70
2018,04,23,05,07,3.70
2018,04,23,05,08,3.70
2018,04,23,05,09,3.70
2018,04,23,05,10,3.60
2018,04,23,05,11,3.60
2018,04,23,05,12,3.50
2018,04,23,05,13,3.50
2018,04,23,05,14,3.50
2018,04,23,05,15,3.50
2018,04,23,05,16,3.50
2018,04,23,05,17,3.50
2018,04,23,05,18,3.40
2018,04,23,05,19,3.40
2018,04,23,05,20,3.40
2018,04,23,05,21,3.40
2018,04,23,05,22,3.40
2018,04,23,05,23,3.40
2018,04,23,05,24,3.40
2018,04,23,05,25,3.40
2018,04,23,05,26,3.40
2018,04,23,05,27,3.40
2018,04,23,05,28,3.40
2018,04,23,05,29,3.40
2018,04,23,05,30,3.40
2018,04,23,05,31,3.30
2018,04,23,05,32,3.30
2018,04,23,05,33,3.30
2018,04,23,05,34,3.30
2018,04,23,05,35,3.30
2018,04,23,05,36,3.30
2018,04,23,05,37,3.30
2018,04,23,05,38,3.20
2018,04,23,05,39,3.20
2018,04,23,05,40,3.20
2018,04,23,05,41,3.20
2018,04,23,05,42,3.20
2018,04,23,05,43,3.20
2018,04,23,05,44,3.10
2018,04,23,05,45,3.10
2018,04,23,05,46,3.10
2018,04,23,05,47,3.10
2018,04,23,05,48,3.10
2018,04,23,05,49,3.10
2018,04,23,05,50,3.20
2018,04,23,05,51,3.20
2018,04,23,05,52,3.30
2018,04,23,05,53,3.30
2018,04,23,05,54,3.30
2018,04,23,05,55,3.40
2018,04,23,05,56,3.40
2018,04,23,05,57,3.40
2018,04,23,05,58,3.40
2018,04,23,05,59,3.30
2018,04,23,06,00,3.30
2018,04,23,06,01,3.30
2018,04,23,06,02,3.30
2018,04,23,06,03,3.20
2018,04,23,06,04,3.20
2018,04,23,06,05,3.20
2018,04,23,06,06,3.20
2018,04,23,06,07,3.20
2018,04,23,06,08,3.20
2018,04,23,06,09,3.20
2018,04,23,06,10,3.20
2018,04,23,06,11,3.20
2018,04,23,06,12,3.20
2018,04,23,06,13,3.20
2018,04,23,06,14,3.20
2018,04,23,06,15,3.20
2018,04,23,06,16,3.20
2018,04,23,06,17,3.20
2018,04,23,06,18,3.20
2018,04,23,06,19,3.20
2018,04,23,06,20,3.20
2018,04,23,06,21,3.20
2018,04,23,06,22,3.20
2018,04,23,06,23,3.30
2018,04,23,06,24,3.40
2018,04,23,06,25,3.40
2018,04,23,06,26,3.50
2018,04,23,06,27,3.50
2018,04,23,06,28,3.60
2018,04,23,06,29,3.80
2018,04,23,06,30,3.90
2018,04,23,06,31,4.10
2018,04,23,06,32,4.20
2018,04,23,06,33,4.20
2018,04,23,06,34,4.30
2018,04,23,06,35,4.30
2018,04,23,06,36,4.30
2018,04,23,06,37,4.30
2018,04,23,06,38,4.30
2018,04,23,06,39,4.20
2018,04,23,06,40,4.20
2018,04,23,06,41,4.20
2018,04,23,06,42,4.20
2018,04,23,06,43,4.30
2018,04,23,06,44,4.30
2018,04,23,06,45,4.40
2018,04,23,06,46,4.50
2018,04,23,06,47,4.60
2018,04,23,06,48,4.80
2018,04,23,06,49,4.90
2018,04,23,06,50,5.10
2018,04,23,06,51,5.20
2018,04,23,06,52,5.30
2018,04,23,06,53,5.40
2018,04,23,06,54,5.60
2018,04,23,06,55,5.60
2018,04,23,06,56,5.80
2018,04,23,06,57,5.90
2018,04,23,06,58,6.00
2018,04,23,06,59,6.00
2018,04,23,07,00,6.10
2018,04,23,07,01,6.20
2018,04,23,07,02,6.30
2018,04,23,07,03,6.40
2018,04,23,07,04,6.50
2018,04,23,07,05,6.60
2018,04,23,07,06,6.60
2018,04,23,07,07,6.60
2018,04,23,07,08,6.70
2018,04,23,07,09,6.70
2018,04,23,07,10,6.70
2018,04,23,07,11,6.80
2018,04,23,07,12,6.80
2018,04,23,07,13,6.80
2018,04,23,07,14,6.90
2018,04,23,07,15,7.00
2018,04,23,07,16,7.00
2018,04,23,07,17,7.10
2018,04,23,07,18,7.20
2018,04,23,07,19,7.20
2018,04,23,07,20,7.20
2018,04,23,07,21,7.30
2018,04,23,07,22,7.40
2018,04,23,07,23,7.40
2018,04,23,07,24,7.50
2018,04,23,07,25,7.50
2018,04,23,07,26,7.50
2018,04,23,07,27,7.60
2018,04,23,07,28,7.60
2018,04,23,07,29,7.60
2018,04,23,07,30,7.60
2018,04,23,07,31,7.70
2018,04,23,07,32,7.70
2018,04,23,07,33,7.70
2018,04,23,07,34,7.80
2018,04,23,07,35,7.80
2018,04,23,07,36,7.90
2018,04,23,07,37,8.00
2018,04,23,07,38,8.10
2018,04,23,07,39,8.20
2018,04,23,07,40,8.30
2018,04,23,07,41,8.50
2018,04,23,07,42,8.60
2018,04,23,07,43,8.70
2018,04,23,07,44,8.80
2018,04,23,07,45,8.80
2018,04,23,07,46,8.90
2018,04,23,07,47,9.00
2018,04,23,07,48,9.10
2018,04,23,07,49,9.10
2018,04,23,07,50,9.20
2018,04,23,07,51,9.20
2018,04,23,07,52,9.30
2018,04,23,07,53,9.30
2018,04,23,07,54,9.30
2018,04,23,07,55,9.40
2018,04,23,07,56,9.40
2018,04,23,07,57,9.40
2018,04,23,07,58,9.30
2018,04,23,07,59,9.30
2018,04,23,08,00,9.30
2018,04,23,08,01,9.30
2018,04,23,08,02,9.30
2018,04,23,08,03,9.30
2018,04,23,08,04,9.30
2018,04,23,08,05,9.30
2018,04,23,08,06,9.30
2018,04,23,08,07,9.40
2018,04,23,08,08,9.50
2018,04,23,08,09,9.50
2018,04,23,08,10,9.60
2018,04,23,08,11,9.60
2018,04,23,08,12,9.70
2018,04,23,08,13,9.70
2018,04,23,08,14,9.80
2018,04,23,08,15,9.80
2018,04,23,08,16,9.90
2018,04,23,08,17,9.90
2018,04,23,08,18,10.00
2018,04,23,08,19,10.10
2018,04,23,08,20,10.20
2018,04,23,08,21,10.20
2018,04,23,08,22,10.20
2018,04,23,08,23,10.20
2018,04,23,08,24,10.30
2018,04,23,08,25,10.30
2018,04,23,08,26,10.30
2018,04,23,08,27,10.30
2018,04,23,08,28,10.30
2018,04,23,08,29,10.30
2018,04,23,08,30,10.40
2018,04,23,08,31,10.40
2018,04,23,08,32,10.40
2018,04,23,08,33,10.40
2018,04,23,08,34,10.40
2018,04,23,08,35,10.40
2018,04,23,08,36,10.40
2018,04,23,08,37,10.40
2018,04,23,08,38,10.40
2018,04,23,08,39,10.40
2018,04,23,08,40,10.40
2018,04,23,08,41,10.50
2018,04,23,08,42,10.50
2018,04,23,08,43,10.60
2018,04,23,08,44,10.60
2018,04,23,08,45,10.60
2018,04,23,08,46,10.60
2018,04,23,08,47,10.70
2018,04,23,08,48,10.70
2018,04,23,08,49,10.70
2018,04,23,08,50,10.80
2018,04,23,08,51,10.80
2018,04,23,08,52,10.80
2018,04,23,08,53,10.80
2018,04,23,08,54,10.90
2018,04,23,08,55,10.90
2018,04,23,08,56,10.90
2018,04,23,08,57,10.90
2018,04,23,08,58,11.00
2018,04,23,08,59,11.00
2018,04,23,09,00,11.10
2018,04,23,09,01,11.10
2018,04,23,09,02,11.10
2018,04,23,09,03,11.10
2018,04,23,09,04,11.10
2018,04,23,09,05,11.10
2018,04,23,09,06,11.10
2018,04,23,09,07,11.20
2018,04,23,09,08,11.20
2018,04,23,09,09,11.30
2018,04,23,09,10,11.30
2018,04,23,09,11,11.30
2018,04,23,09,12,11.30
2018,04,23,09,13,11.30
2018,04,23,09,14,11.40
2018,04,23,09,15,11.40
2018,04,23,09,16,11.40
2018,04,23,09,17,11.40
2018,04,23,09,18,11.50
2018,04,23,09,19,11.50
2018,04,23,09,20,11.60
2018,04,23,09,21,11.60
2018,04,23,09,22,11.70
2018,04,23,09,23,11.80
2018,04,23,09,24,11.80
2018,04,23,09,25,11.90
2018,04,23,09,26,11.90
2018,04,23,09,27,11.90
2018,04,23,09,28,12.00
2018,04,23,09,29,12.00
2018,04,23,09,30,12.10
2018,04,23,09,31,12.20
2018,04,23,09,32,12.20
2018,04,23,09,33,12.20
2018,04,23,09,34,12.10
2018,04,23,09,35,12.10
2018,04,23,09,36,12.10
2018,04,23,09,37,12.10
2018,04,23,09,38,12.20
2018,04,23,09,39,12.20
2018,04,23,09,40,12.30
2018,04,23,09,41,12.30
2018,04,23,09,42,12.40
2018,04,23,09,43,12.40
2018,04,23,09,44,12.50
2018,04,23,09,45,12.60
2018,04,23,09,46,12.70
2018,04,23,09,47,12.70
2018,04,23,09,48,12.80
2018,04,23,09,49,12.80
2018,04,23,09,50,12.80
2018,04,23,09,51,12.90
2018,04,23,09,52,13.00
2018,04,23,09,53,13.10
2018,04,23,09,54,13.10
2018,04,23,09,55,13.20
2018,04,23,09,56,13.20
2018,04,23,09,57,13.20
2018,04,23,09,58,13.20
2018,04,23,09,59,13.10
2018,04,23,10,00,13.00
2018,04,23,10,01,12.90
2018,04,23,10,02,12.80
2018,04,23,10,03,12.80
2018,04,23,10,04,12.80
2018,04,23,10,05,12.80
2018,04,23,10,06,12.90
2018,04,23,10,07,12.80
2018,04,23,10,08,12.80
2018,04,23,10,09,12.80
2018,04,23,10,10,12.80
2018,04,23,10,11,12.80
2018,04,23,10,12,12.80
2018,04,23,10,13,12.80
2018,04,23,10,14,12.80
2018,04,23,10,15,12.90
2018,04,23,10,16,12.90
2018,04,23,10,17,13.00
2018,04,23,10,18,13.10
2018,04,23,10,19,13.10
2018,04,23,10,20,13.20
2018,04,23,10,21,13.20
2018,04,23,10,22,13.20
2018,04,23,10,23,13.20
2018,04,23,10,24,13.30
2018,04,23,10,25,13.40
2018,04,23,10,26,13.40
2018,04,23,10,27,13.40
2018,04,23,10,28,13.40
2018,04,23,10,29,13.40
2018,04,23,10,30,13.50
2018,04,23,10,31,13.60
2018,04,23,10,32,13.60
2018,04,23,10,33,13.60
2018,04,23,10,34,13.60
2018,04,23,10,35,13.60
2018,04,23,10,36,13.60
2018,04,23,10,37,13.60
2018,04,23,10,38,13.70
2018,04,23,10,39,13.80
2018,04,23,10,40,13.90
2018,04,23,10,41,14.00
2018,04,23,10,42,14.00
2018,04,23,10,43,14.10
2018,04,23,10,44,14.10
2018,04,23,10,45,14.10
2018,04,23,10,46,14.20
2018,04,23,10,47,14.20
2018,04,23,10,48,14.30
2018,04,23,10,49,14.20
2018,04,23,10,50,14.10
2018,04,23,10,51,14.10
2018,04,23,10,52,14.00
2018,04,23,10,53,14.10
2018,04,23,10,54,14.10
2018,04,23,10,55,14.00
2018,04,23,10,56,14.00
2018,04,23,10,57,13.90
2018,04,23,10,58,13.90
2018,04,23,10,59,13.80
2018,04,23,11,00,13.80
2018,04,23,11,01,13.70
2018,04,23,11,02,13.60
2018,04,23,11,03,13.60
2018,04,23,11,04,13.70
2018,04,23,11,05,13.80
2018,04,23,11,06,13.80
2018,04,23,11,07,13.80
2018,04,23,11,08,13.90
2018,04,23,11,09,13.90
2018,04,23,11,10,14.00
2018,04,23,11,11,14.00
2018,04,23,11,12,14.00
2018,04,23,11,13,14.10
2018,04,23,11,14,14.10
2018,04,23,11,15,14.10
2018,04,23,11,16,14.20
2018,04,23,11,17,14.20
2018,04,23,11,18,14.10
2018,04,23,11,19,14.10
2018,04,23,11,20,14.10
2018,04,23,11,21,14.10
2018,04,23,11,22,14.10
2018,04,23,11,23,14.00
2018,04,23,11,24,14.00
2018,04,23,11,25,14.00
2018,04,23,11,26,14.10
2018,04,23,11,27,14.10
2018,04,23,11,28,14.10
2018,04,23,11,29,14.00
2018,04,23,11,30,13.90
2018,04,23,11,31,13.80
2018,04,23,11,32,13.80
2018,04,23,11,33,13.90
2018,04,23,11,34,14.00
2018,04,23,11,35,14.00
2018,04,23,11,36,14.00
2018,04,23,11,37,14.00
2018,04,23,11,38,14.00
2018,04,23,11,39,14.00
2018,04,23,11,40,14.10
2018,04,23,11,41,14.20
2018,04,23,11,42,14.40
2018,04,23,11,43,14.40
2018,04,23,11,44,14.60
2018,04,23,11,45,14.70
2018,04,23,11,46,14.80
2018,04,23,11,47,14.80
2018,04,23,11,48,14.80
2018,04,23,11,49,14.80
2018,04,23,11,50,14.90
2018,04,23,11,51,15.00
2018,04,23,11,52,15.00
2018,04,23,11,53,15.00
2018,04,23,11,54,15.00
2018,04,23,11,55,15.00
2018,04,23,11,56,15.10
2018,04,23,11,57,15.20
2018,04,23,11,58,15.20
2018,04,23,11,59,15.20
2018,04,23,12,00,15.10
2018,04,23,12,01,15.00
2018,04,23,12,02,15.00
2018,04,23,12,03,15.00
2018,04,23,12,04,15.00
2018,04,23,12,05,15.00
2018,04,23,12,06,15.00
2018,04,23,12,07,15.00
2018,04,23,12,08,15.00
2018,04,23,12,09,15.00
2018,04,23,12,10,14.90
2018,04,23,12,11,14.80
2018,04,23,12,12,14.90
2018,04,23,12,13,14.90
2018,04,23,12,14,14.90
2018,04,23,12,15,15.00
2018,04,23,12,16,15.00
2018,04,23,12,17,15.00
2018,04,23,12,18,15.10
2018,04,23,12,19,15.20
2018,04,23,12,20,15.10
2018,04,23,12,21,15.20
2018,04,23,12,22,15.20
2018,04,23,12,23,15.20
2018,04,23,12,24,15.20
2018,04,23,12,25,15.10
2018,04,23,12,26,15.10
2018,04,23,12,27,15.20
2018,04,23,12,28,15.20
2018,04,23,12,29,15.30
2018,04,23,12,30,15.40
2018,04,23,12,31,15.50
2018,04,23,12,32,15.50
2018,04,23,12,33,15.60
2018,04,23,12,34,15.60
2018,04,23,12,35,15.70
2018,04,23,12,36,15.70
2018,04,23,12,37,15.80
2018,04,23,12,38,15.90
2018,04,23,12,39,15.90
2018,04,23,12,40,15.90
2018,04,23,12,41,15.80
2018,04,23,12,42,15.60
2018,04,23,12,43,15.50
2018,04,23,12,44,15.50
2018,04,23,12,45,15.60
2018,04,23,12,46,15.60
2018,04,23,12,47,15.60
2018,04,23,12,48,15.60
2018,04,23,12,49,15.70
2018,04,23,12,50,15.70
2018,04,23,12,51,15.60
2018,04,23,12,52,15.60
2018,04,23,12,53,15.50
2018,04,23,12,54,15.50
2018,04,23,12,55,15.50
2018,04,23,12,56,15.60
2018,04,23,12,57,15.60
2018,04,23,12,58,15.70
2018,04,23,12,59,15.70
2018,04,23,13,00,15.90
2018,04,23,13,01,15.90
2018,04,23,13,02,15.90
2018,04,23,13,03,15.90
2018,04,23,13,04,15.90
2018,04,23,13,05,16.00
2018,04,23,13,06,16.10
2018,04,23,13,07,16.10
2018,04,23,13,08,16.00
2018,04,23,13,09,16.00
2018,04,23,13,10,16.00
2018,04,23,13,11,16.00
2018,04,23,13,12,16.10
2018,04,23,13,13,16.10
2018,04,23,13,14,16.20
2018,04,23,13,15,16.20
2018,04,23,13,16,16.20
2018,04,23,13,17,16.00
2018,04,23,13,18,16.00
2018,04,23,13,19,15.90
2018,04,23,13,20,16.00
2018,04,23,13,21,16.10
2018,04,23,13,22,16.20
2018,04,23,13,23,16.20
2018,04,23,13,24,16.10
2018,04,23,13,25,16.10
2018,04,23,13,26,16.10
2018,04,23,13,27,16.10
2018,04,23,13,28,16.20
2018,04,23,13,29,16.20
2018,04,23,13,30,16.30
2018,04,23,13,31,16.30
2018,04,23,13,32,16.30
2018,04,23,13,33,16.40
2018,04,23,13,34,16.40
2018,04,23,13,35,16.50
2018,04,23,13,36,16.50
2018,04,23,13,37,16.50
2018,04,23,13,38,16.60
2018,04,23,13,39,16.60
2018,04,23,13,40,16.60
2018,04,23,13,41,16.50
2018,04,23,13,42,16.40
2018,04,23,13,43,16.30
2018,04,23,13,44,16.30
2018,04,23,13,45,16.30
2018,04,23,13,46,16.30
2018,04,23,13,47,16.40
2018,04,23,13,48,16.50
2018,04,23,13,49,16.60
2018,04,23,13,50,16.80
2018,04,23,13,51,16.90
2018,04,23,13,52,16.90
2018,04,23,13,53,16.80
2018,04,23,13,54,16.80
2018,04,23,13,55,16.80
2018,04,23,13,56,16.70
2018,04,23,13,57,16.60
2018,04,23,13,58,16.60
2018,04,23,13,59,16.60
2018,04,23,14,00,16.60
2018,04,23,14,01,16.60
2018,04,23,14,02,16.70
2018,04,23,14,03,16.70
2018,04,23,14,04,16.70
2018,04,23,14,05,16.70
2018,04,23,14,06,16.70
2018,04,23,14,07,16.70
2018,04,23,14,08,16.70
2018,04,23,14,09,16.60
2018,04,23,14,10,16.60
2018,04,23,14,11,16.50
2018,04,23,14,12,16.50
2018,04,23,14,13,16.50
2018,04,23,14,14,16.60
2018,04,23,14,15,16.60
2018,04,23,14,16,16.60
2018,04,23,14,17,16.70
2018,04,23,14,18,16.70
2018,04,23,14,19,16.80
2018,04,23,14,20,16.80
2018,04,23,14,21,16.90
2018,04,23,14,22,17.00
2018,04,23,14,23,17.10
2018,04,23,14,24,17.20
2018,04,23,14,25,17.30
2018,04,23,14,26,17.30
2018,04,23,14,27,17.30
2018,04,23,14,28,17.30
2018,04,23,14,29,17.30
2018,04,23,14,30,17.30
2018,04,23,14,31,17.20
2018,04,23,14,32,17.20
2018,04,23,14,33,17.30
2018,04,23,14,34,17.30
2018,04,23,14,35,17.20
2018,04,23,14,36,17.20
2018,04,23,14,37,17.20
2018,04,23,14,38,17.20
2018,04,23,14,39,17.30
2018,04,23,14,40,17.30
2018,04,23,14,41,17.40
2018,04,23,14,42,17.40
2018,04,23,14,43,17.50
2018,04,23,14,44,17.60
2018,04,23,14,45,17.60
2018,04,23,14,46,17.60
2018,04,23,14,47,17.60
2018,04,23,14,48,17.50
2018,04,23,14,49,17.60
2018,04,23,14,50,17.60
2018,04,23,14,51,17.50
2018,04,23,14,52,17.40
2018,04,23,14,53,17.40
2018,04,23,14,54,17.40
2018,04,23,14,55,17.40
2018,04,23,14,56,17.40
2018,04,23,14,57,17.40
2018,04,23,14,58,17.50
2018,04,23,14,59,17.60
2018,04,23,15,00,17.70
2018,04,23,15,01,17.70
2018,04,23,15,02,17.70
2018,04,23,15,03,17.70
2018,04,23,15,04,17.70
2018,04,23,15,05,17.70
2018,04,23,15,06,17.60
2018,04,23,15,07,17.60
2018,04,23,15,08,17.60
2018,04,23,15,09,17.60
2018,04,23,15,10,17.70
2018,04,23,15,11,17.70
2018,04,23,15,12,17.70
2018,04,23,15,13,17.70
2018,04,23,15,14,17.80
2018,04,23,15,15,17.80
2018,04,23,15,16,17.80
2018,04,23,15,17,17.80
2018,04,23,15,18,17.90
2018,04,23,15,19,17.80
2018,04,23,15,20,17.80
2018,04,23,15,21,17.80
2018,04,23,15,22,17.70
2018,04,23,15,23,17.70
2018,04,23,15,24,17.70
2018,04,23,15,25,17.70
2018,04,23,15,26,17.80
2018,04,23,15,27,17.80
2018,04,23,15,28,17.90
2018,04,23,15,29,18.00
2018,04,23,15,30,18.00
2018,04,23,15,31,18.00
2018,04,23,15,32,18.00
2018,04,23,15,33,18.00
2018,04,23,15,34,18.00
2018,04,23,15,35,18.10
2018,04,23,15,36,18.20
2018,04,23,15,37,18.20
2018,04,23,15,38,18.20
2018,04,23,15,39,18.30
2018,04,23,15,40,18.30
2018,04,23,15,41,18.40
2018,04,23,15,42,18.40
2018,04,23,15,43,18.40
2018,04,23,15,44,18.40
2018,04,23,15,45,18.40
2018,04,23,15,46,18.40
2018,04,23,15,47,18.40
2018,04,23,15,48,18.40
2018,04,23,15,49,18.30
2018,04,23,15,50,18.20
2018,04,23,15,51,18.20
2018,04,23,15,52,18.20
2018,04,23,15,53,18.30
2018,04,23,15,54,18.30
2018,04,23,15,55,18.30
2018,04,23,15,56,18.30
2018,04,23,15,57,18.30
2018,04,23,15,58,18.30
2018,04,23,15,59,18.40
2018,04,23,16,00,18.30
2018,04,23,16,01,18.30
2018,04,23,16,02,18.40
2018,04,23,16,03,18.40
2018,04,23,16,04,18.50
2018,04,23,16,05,18.50
2018,04,23,16,06,18.60
2018,04,23,16,07,18.60
2018,04,23,16,08,18.60
2018,04,23,16,09,18.60
2018,04,23,16,10,18.60
2018,04,23,16,11,18.60
2018,04,23,16,12,18.60
2018,04,23,16,13,18.70
2018,04,23,16,14,18.70
2018,04,23,16,15,18.70
2018,04,23,16,16,18.70
2018,04,23,16,17,18.70
2018,04,23,16,18,18.70
2018,04,23,16,19,18.70
2018,04,23,16,20,18.60
2018,04,23,16,21,18.40
2018,04,23,16,22,18.30
2018,04,23,16,23,18.20
2018,04,23,16,24,18.10
2018,04,23,16,25,18.00
2018,04,23,16,26,18.00
2018,04,23,16,27,17.90
2018,04,23,16,28,17.90
2018,04,23,16,29,18.00
2018,04,23,16,30,18.00
2018,04,23,16,31,18.00
2018,04,23,16,32,17.90
2018,04,23,16,33,17.90
2018,04,23,16,34,17.80
2018,04,23,16,35,17.80
2018,04,23,16,36,17.80
2018,04,23,16,37,17.60
2018,04,23,16,38,17.50
2018,04,23,16,39,17.50
2018,04,23,16,40,17.40
2018,04,23,16,41,17.40
2018,04,23,16,42,17.40
2018,04,23,16,43,17.50
2018,04,23,16,44,17.60
2018,04,23,16,45,17.70
2018,04,23,16,46,17.70
2018,04,23,16,47,17.70
2018,04,23,16,48,17.70
2018,04,23,16,49,17.70
2018,04,23,16,50,17.70
2018,04,23,16,51,17.70
2018,04,23,16,52,17.80
2018,04,23,16,53,17.90
2018,04,23,16,54,17.90
2018,04,23,16,55,17.90
2018,04,23,16,56,17.90
2018,04,23,16,57,17.80
2018,04,23,16,58,17.70
2018,04,23,16,59,17.70
2018,04,23,17,00,17.70
2018,04,23,17,01,17.60
2018,04,23,17,02,17.60
2018,04,23,17,03,17.60
2018,04,23,17,04,17.60
2018,04,23,17,05,17.50
2018,04,23,17,06,17.50
2018,04,23,17,07,17.50
2018,04,23,17,08,17.60
2018,04,23,17,09,17.60
2018,04,23,17,10,17.70
2018,04,23,17,11,17.70
2018,04,23,17,12,17.70
2018,04,23,17,13,17.70
2018,04,23,17,14,17.80
2018,04,23,17,15,17.80
2018,04,23,17,16,17.80
2018,04,23,17,17,17.90
2018,04,23,17,18,17.90
2018,04,23,17,19,17.90
2018,04,23,17,20,17.90
2018,04,23,17,21,17.90
2018,04,23,17,22,17.80
2018,04,23,17,23,17.80
2018,04,23,17,24,17.80
2018,04,23,17,25,17.80
2018,04,23,17,26,17.80
2018,04,23,17,27,17.80
2018,04,23,17,28,17.70
2018,04,23,17,29,17.70
2018,04,23,17,30,17.70
2018,04,23,17,31,17.70
2018,04,23,17,32,17.70
2018,04,23,17,33,17.60
2018,04,23,17,34,17.60
2018,04,23,17,35,17.60
2018,04,23,17,36,17.60
2018,04,23,17,37,17.60
2018,04,23,17,38,17.60
2018,04,23,17,39,17.50
2018,04,23,17,40,17.50
2018,04,23,17,41,17.50